Dewpoint
-5 -4 -3 -6 -6 -8 -8 -7 -7 -8 -10 -10 -9 -9 -10 -12 -4 -3 -3 -4 -6 -6 -6 -6 -6 -6 -6 -6 -6 -4 -3 -3 -2 -2 -4 -6 -3 -2 -4 -2 2 3 2 3
-2 -3 -6 -9 -7 -8 -9 -8 -5 -8 -11 -10 -9 -9 -7 -5 -4 -4 -4 -5 -6 -6 -5 -6 -7 -7 -7 -8 -6 -5 -3 -3 -2 -3 -6 -4 -4 -5 -4 -4 -5 -5 -4 1
-4 -6 -9 -8 -6 -7 -9 -3 -4 -8 -8 -8 -9 -8 -3 -4 -4 -4 -5 -6 -8 -9 -8 -8 -9 -10 -11 -10 -9 -5 -4 -3 -3 -3 -3 -3 -5 -7 -6 -7 -8 -8 -8 -7
-5 -8 -6 -6 -7 -7 -6 -7 -7 -6 -6 -5 -10 -6 -7 -3 -3 -4 -8 -10 -13 -14 -12 -11 -12 -11 -12 -11 -10 -5 -4 -3 -3 -3 -2 -2 -2 -2 -3 -6 -7 -7 -7 -6
-4 -5 -4 -5 -6 -6 -7 -7 -7 -7 -7 -8 -8 -5 -5 -4 -4 -8 -11 -14 -14 -13 -13 -11 -11 -11 -10 -10 -7 -6 -5 -3 -3 -3 -3 -3 -3 -3 -3 -2 -3 -4 -4 -4
-6 -6 -6 -6 -9 -9 -7 -8 -8 -7 -7 -4 -11 -11 -12 -5 -6 -10 -13 -14 -13 -13 -11 -11 -11 -9 -8 -8 -7 -5 -5 -4 -3 -3 -3 -3 -3 -3 -5 -3 -1 -2 -2 -3
-6 -5 -6 -8 -8 -9 -9 -7 -3 -1 -2 -7 -13 -10 -6 -6 -8 -12 -13 -14 -13 -11 -11 -11 -11 -9 -8 -8 -7 -7 -6 -5 -4 -4 -4 -3 -3 -2 -3 -2 -2 -2 -2 -3
-8 -5 -6 -9 -7 -7 -7 -8 -3 0 -6 -9 -10 -7 -5 -9 -13 -13 -15 -14 -11 -10 -11 -12 -11 -10 -8 -8 -8 -7 -6 -6 -6 -7 -7 -7 -5 -3 -3 -2 -3 -2 -2 -2
-3 -7 -11 -7 -7 -8 -6 -5 -8 -5 -7 -5 -7 -13 -13 -13 -13 -13 -13 -11 -10 -9 -11 -12 -11 -10 -10 -10 -10 -10 -10 -9 -9 -9 -8 -7 -7 -6 -4 -4 -3 -3 -2 -3
-7 -5 -7 -8 -8 -7 -7 -11 -7 -6 -1 -4 -11 -10 -10 -11 -12 -13 -12 -11 -11 -12 -13 -13 -12 -11 -11 -10 -10 -11 -10 -10 -9 -8 -8 -7 -6 -5 -4 -3 -3 -2 -2 -3
-8 -7 -8 -12 -10 -8 -9 -9 -8 -8 -8 -5 -4 -8 -12 -12 -13 -13 -9 -9 -11 -11 -13 -13 -12 -12 -11 -11 -11 -10 -10 -10 -10 -9 -9 -8 -7 -5 -4 -3 -3 -3 -3 -4
-8 -8 -6 -10 -9 -10 -9 -8 -8 -1 -2 -4 -3 -5 -12 -12 -9 -9 -8 -9 -8 -9 -10 -10 -12 -12 -11 -12 -12 -10 -10 -10 -10 -10 -9 -8 -7 -6 -6 -5 -4 -5 -5 -3
-7 -9 -5 -9 -6 -8 -9 -10 -10 -8 -6 -5 -3 -5 -11 -5 -3 -2 -3 -5 -7 -7 -8 -10 -11 -10 -10 -11 -11 -10 -10 -10 -9 -10 -9 -9 -8 -7 -6 -5 -4 -4 -3 -2
-5 -5 -5 -3 -6 -8 -7 -9 -9 -9 -5 -5 -5 -7 -11 -4 -4 -2 -2 -9 -9 -7 -6 -9 -10 -9 -9 -10 -10 -9 -9 -8 -9 -10 -10 -9 -8 -6 -5 -5 -4 -3 -2 -2
-8 -5 -8 -9 -10 -10 -11 -12 -9 -6 -8 -6 -11 -11 -4 -4 -7 -9 -10 -10 -6 -5 -7 -10 -10 -9 -9 -9 -8 -8 -7 -7 -8 -9 -10 -9 -7 -6 -5 -5 -4 -2 -2 -1
-8 -5 -7 -7 -11 -12 -12 -14 -16 -14 -14 -13 -13 -11 -4 -6 -10 -12 -11 -6 -3 -5 -8 -9 -9 -9 -8 -8 -7 -6 -6 -7 -8 -9 -8 -6 -6 -5 -5 -3 -2 -2 -2 -3
-6 -6 -4 -7 -10 -13 -13 -12 -14 -14 -14 -13 -10 -6 -10 -10 -12 -12 -12 -5 -4 -8 -8 -8 -9 -9 -7 -7 -7 -7 -7 -7 -8 -7 -6 -4 -4 -3 -3 -3 -3 -3 -3 -1
-7 -6 -4 -3 -11 -8 -16 -17 -15 -13 -13 -12 -7 -7 -9 -10 -11 -11 -11 -4 -8 -8 -8 -8 -8 -8 -9 -8 -7 -7 -7 -7 -6 -4 -3 -3 -2 -2 -3 -3 -3 -2 -1 1
-9 -7 -4 -5 -7 -11 -14 -13 -11 -10 -10 -9 -8 -9 -10 -9 -9 -10 -10 -10 -9 -8 -8 -8 -8 -9 -7 -8 -8 -7 -5 -4 -2 -1 -1 -1 -1 -2 -2 -2 -2 -1 0 2
-10 -10 -5 -5 -6 -7 -12 -12 -11 -11 -8 -7 -7 -8 -8 -7 -6 -8 -8 -7 -7 -7 -7 -8 -9 -7 -8 -7 -5 -4 -2 -1 -1 -1 -2 -1 -1 -1 -1 -2 -2 -0 1 3
-8 -7 -6 -7 -5 -10 -11 -12 -7 -4 -3 -3 -4 -5 -5 -5 -5 -6 -6 -6 -7 -7 -8 -8 -7 -8 -6 -5 -3 -1 -1 -1 -2 -2 -2 -1 -1 -1 -1 -1 0 1 2 3
-9 -7 -5 -5 -6 -7 -12 -10 -4 -3 -2 -2 -4 -4 -4 -4 -5 -6 -6 -6 -6 -8 -8 -7 -7 -5 -5 -3 -1 -1 -1 -2 -2 -1 -1 -0 -1 -1 -1 -0 1 2 3 3
-8 -9 -6 -8 -8 -13 -12 -8 -7 -6 -5 -5 -4 -5 -4 -5 -6 -6 -6 -7 -8 -7 -7 -6 -5 -5 -2 -2 -2 -2 -2 -2 -1 -1 -1 -0 -1 -1 0 1 3 3 3 2
-15 -13 -8 -7 -10 -10 -8 -8 -7 -7 -7 -5 -5 -6 -6 -6 -6 -7 -8 -8 -7 -7 -5 -5 -4 -2 -2 -2 -2 -2 -1 -1 -0 -0 -1 -0 -1 0 2 3 3 2 2 3
-13 -12 -10 -10 -10 -8 -7 -7 -7 -7 -7 -7 -7 -7 -7 -7 -7 -9 -7 -7 -6 -5 -5 -5 -2 -2 -2 -2 -2 -0 -0 1 -0 -0 0 -1 1 2 3 3 3 3 3 4
-12 -11 -8 -7 -8 -7 -7 -7 -7 -7 -7 -7 -8 -7 -8 -9 -8 -7 -7 -6 -5 -5 -5 -2 -2 -2 -2 -2 -0 -0 0 1 0 -0 -0 0 2 3 3 3 3 3 3 3
Wind_Speed
16 10 8 8 5 4 6 7 10 9 9 15 8 17 15 17 11 10 6 7 10 10 11 12 14 16 20 21 19 19 21 22 22 23 27 27 25 25 24 19 20 20 19 20
6 8 7 7 8 8 7 8 7 11 12 17 14 19 6 12 11 13 14 13 11 13 15 18 18 22 23 24 25 21 18 20 22 22 25 21 24 23 22 21 22 23 23 23
9 5 9 2 7 12 10 5 9 13 21 16 9 5 6 10 16 11 8 16 18 18 19 21 25 28 27 28 25 24 17 18 20 21 23 22 25 25 27 29 27 26 25 25
6 8 5 4 6 9 7 9 15 17 12 4 7 6 2 9 8 6 19 18 18 20 23 26 29 29 30 31 29 19 19 19 20 22 21 23 25 27 30 31 31 29 27 26
4 5 7 5 5 6 5 12 20 20 16 12 8 3 4 9 9 12 16 20 22 23 29 28 27 29 30 29 28 23 25 25 22 21 22 24 25 29 32 33 32 32 31 32
4 4 4 6 12 9 9 14 23 14 7 2 12 6 4 5 6 5 14 19 20 24 23 24 27 30 29 28 28 25 25 26 21 22 22 24 24 29 33 34 32 36 36 38
4 4 5 10 8 5 16 10 5 5 1 5 21 10 7 9 6 9 14 21 23 21 22 23 24 26 27 28 28 28 28 26 20 23 26 27 28 31 33 30 31 34 38 41
5 1 7 7 4 6 10 4 2 6 4 13 13 3 3 7 11 18 17 17 22 22 23 23 22 24 24 26 26 26 26 25 26 27 28 27 29 31 30 29 33 34 38 37
6 1 1 6 2 3 6 6 5 6 10 9 4 5 10 17 21 22 28 25 26 23 27 23 23 24 26 26 27 28 29 29 31 31 31 31 31 31 31 34 32 35 36 37
3 6 1 4 5 5 2 1 4 3 5 6 7 22 9 23 26 20 20 27 28 27 27 28 27 26 28 25 28 30 31 31 29 29 30 30 32 33 32 31 35 35 37 40
6 3 1 9 5 7 3 4 4 5 3 7 10 7 17 22 21 19 23 29 29 28 28 27 28 29 26 27 30 31 31 29 30 31 32 33 33 32 32 33 34 36 40 41
7 4 4 11 10 8 6 8 6 2 7 7 10 17 10 20 31 31 24 23 28 29 32 34 31 27 30 31 31 30 30 31 32 33 33 33 33 33 34 34 37 39 41 38
9 2 5 1 3 2 6 7 10 10 6 15 11 11 20 30 30 36 36 32 27 32 36 35 28 26 29 33 32 31 30 32 35 35 35 35 35 35 34 38 39 40 41 39
3 3 3 4 9 9 15 17 9 7 7 13 13 21 19 16 17 28 37 33 33 35 36 34 34 34 35 34 32 32 34 35 36 36 37 38 37 35 37 39 40 39 41 41
5 3 7 9 15 15 15 18 13 10 12 7 17 19 12 14 24 27 27 34 33 32 34 36 37 36 36 34 34 37 38 39 38 36 38 39 39 37 38 42 43 39 43 37
5 3 9 10 10 16 17 11 16 16 16 14 17 19 18 22 30 30 32 29 30 33 36 39 38 37 36 36 36 38 38 40 39 39 38 39 37 38 39 37 38 43 42 39
3 4 5 3 15 18 2 11 11 12 13 14 19 13 28 23 26 29 37 27 29 35 40 39 39 39 39 40 39 42 42 40 41 39 40 33 37 40 43 45 50 51 41 31
4 5 3 5 10 4 5 10 13 16 17 20 9 17 26 30 32 31 29 20 35 42 42 42 43 39 42 42 41 41 42 40 38 39 38 43 36 40 42 46 43 36 32 33
4 3 3 2 5 12 3 18 17 18 23 13 18 29 33 36 37 25 24 35 41 41 42 45 39 44 43 43 43 43 43 41 36 39 37 35 36 37 36 36 36 31 30 35
2 3 2 3 1 4 10 19 26 26 11 32 34 30 31 36 16 16 43 45 43 43 43 42 45 43 42 44 44 43 41 42 40 36 37 35 32 31 31 30 27 26 30 17
3 2 2 5 3 6 13 26 25 8 10 39 33 32 32 18 28 41 44 44 42 44 42 46 43 44 43 46 40 42 45 37 39 35 33 30 26 25 25 25 22 26 10 20
1 1 2 3 2 4 33 24 14 15 30 31 34 36 35 37 38 40 41 41 43 42 45 45 44 44 49 44 47 46 42 38 33 30 27 23 21 22 20 16 21 14 17 24
2 5 3 4 4 26 23 27 24 28 29 34 35 37 35 36 38 39 40 40 40 42 45 43 46 53 48 51 45 45 36 29 26 22 21 17 18 17 10 15 14 17 23 28
1 6 1 4 5 16 29 24 32 31 34 37 33 35 35 35 36 38 38 40 41 42 43 45 52 52 54 52 45 32 25 20 18 17 14 12 14 8 10 12 15 19 29 33
6 4 4 6 16 30 17 29 31 36 34 36 36 34 33 33 35 33 37 38 40 42 44 48 50 53 53 49 37 22 20 17 10 8 8 9 4 9 12 12 13 22 30 30
3 3 2 6 19 20 28 35 33 32 35 34 32 34 35 27 31 33 36 37 39 43 47 49 56 51 50 43 30 23 17 13 9 7 5 6 7 12 15 15 18 17 19 23
Wind_Direction
47 62 41 9 34 321 273 311 306 343 318 336 282 287 277 276 143 123 98 63 44 16 6 20 3 353 351 347 333 346 342 340 344 340 335 338 335 325 329 327 319 302 295 299
91 56 16 337 29 342 324 303 330 299 334 315 294 290 334 54 67 66 65 40 25 16 1 345 345 344 341 339 331 325 334 336 341 332 331 332 327 332 322 316 311 304 299 291
71 35 340 5 43 356 339 24 327 300 319 285 314 291 117 85 92 95 92 49 23 10 348 346 345 339 339 336 328 318 321 329 329 320 326 326 329 329 328 327 326 325 320 307
60 26 353 30 38 0 316 12 315 300 313 305 12 288 328 132 115 140 62 38 6 1 352 347 342 340 335 329 325 319 322 322 319 314 315 321 323 321 323 322 323 322 327 324
74 30 2 25 0 340 291 325 291 286 280 289 292 340 98 147 86 52 35 14 5 359 350 343 343 341 337 329 323 316 319 309 304 306 308 309 310 317 317 315 320 322 322 319
82 85 40 358 323 297 298 312 294 266 233 249 39 358 268 57 61 54 26 17 6 349 344 344 345 342 340 335 332 322 316 313 301 306 307 304 300 304 313 314 312 316 316 318
183 102 101 9 328 342 0 347 332 353 249 267 12 342 62 84 67 19 12 1 348 348 350 347 342 341 340 338 336 331 328 328 322 306 309 307 298 301 305 307 305 309 312 316
346 297 15 23 40 313 317 358 344 298 333 298 324 293 76 122 39 9 5 359 353 349 348 344 342 336 332 332 332 333 332 329 327 323 318 314 311 304 303 298 305 304 308 309
348 324 312 77 341 4 2 47 298 284 261 263 253 318 335 340 353 5 356 356 347 354 350 342 336 330 333 332 332 331 325 323 321 316 315 313 311 314 304 302 301 304 305 304
39 288 1 305 271 178 227 215 20 288 311 308 304 309 301 344 338 348 352 354 354 358 353 341 334 328 326 330 332 330 327 324 324 323 321 318 316 310 308 304 303 303 304 304
346 218 297 323 20 31 12 352 349 338 307 291 304 290 341 309 336 335 6 346 348 345 338 333 331 327 326 331 330 329 328 327 327 321 317 318 315 311 309 308 305 303 301 306
37 316 303 312 86 85 75 28 358 10 306 299 285 287 310 341 347 350 345 346 344 342 341 335 325 330 335 332 328 327 325 327 327 322 319 315 313 311 311 309 306 309 311 305
348 350 316 188 109 132 22 355 326 299 289 285 289 292 321 360 351 344 341 326 346 341 330 326 324 334 334 328 325 325 325 326 324 321 317 314 311 311 309 313 312 311 309 307
281 289 290 266 300 328 312 310 298 274 272 283 295 321 351 353 346 344 323 330 337 338 327 334 337 334 329 326 324 325 323 321 322 318 316 310 309 308 309 313 313 310 307 311
22 288 316 323 300 293 295 335 348 4 347 342 331 334 354 349 321 312 319 326 339 331 327 333 328 326 325 324 321 319 317 317 318 315 312 308 307 305 307 312 312 309 316 311
68 289 322 302 308 336 314 1 357 355 354 336 334 326 0 328 320 325 332 342 332 323 327 326 323 324 322 321 318 317 317 317 316 313 309 306 308 309 310 309 308 314 309 311
346 328 335 289 344 299 75 23 357 346 333 330 334 344 328 320 324 328 326 328 315 328 322 321 323 321 319 319 318 315 314 313 313 309 307 304 305 304 301 303 306 307 313 317
326 346 335 302 335 13 18 22 6 345 329 323 3 327 322 326 321 320 319 313 324 323 321 322 319 321 320 319 318 316 314 312 311 308 299 304 309 309 308 308 308 318 327 329
17 8 343 314 339 277 272 24 4 345 317 6 338 332 327 327 322 319 326 322 318 317 318 318 318 321 319 318 319 316 316 314 310 308 307 310 312 309 310 313 314 324 331 337
116 152 116 333 312 308 17 3 350 326 291 358 335 323 328 328 324 320 323 319 317 318 318 321 321 320 320 322 320 318 314 314 315 314 315 313 310 309 311 314 318 330 340 16
24 22 223 269 260 263 10 353 342 334 321 321 325 324 323 319 313 310 315 315 316 319 323 322 323 322 323 322 322 318 317 316 316 315 312 315 317 314 316 317 328 343 53 82
113 70 262 349 282 299 351 331 354 317 315 321 321 318 315 313 313 316 315 316 320 324 324 325 326 324 323 324 321 321 318 317 313 314 313 317 322 318 320 330 350 38 119 112
213 188 199 174 266 304 309 336 332 333 325 319 314 315 315 314 315 316 316 321 325 325 326 329 328 324 321 328 329 324 322 317 315 317 316 320 322 322 346 349 42 107 122 107
1 81 262 0 242 318 329 326 326 331 322 320 323 322 319 317 318 319 323 326 326 329 329 330 328 324 326 334 336 337 331 322 314 314 317 328 325 8 20 32 108 125 122 120
267 16 308 305 326 324 316 322 326 328 324 322 323 322 322 319 319 328 329 328 330 331 331 331 327 329 331 339 345 354 350 355 341 329 337 337 42 35 62 96 124 131 130 129
70 26 306 312 328 318 314 322 329 325 320 327 330 325 323 333 334 334 330 333 334 333 333 330 335 337 340 346 0 2 1 3 3 357 349 87 64 92 102 107 121 125 128 131
Height
1523 1531 1541 1537 1535 1534 1532 1531 1529 1522 1517 1518 1511 1506 1499 1496 1499 1506 1511 1514 1516 1518 1518 1517 1517 1517 1517 1516 1512 1508 1507 1503 1498 1492 1490 1487 1484 1483 1480 1477 1474 1469 1468 1466
1529 1543 1540 1537 1535 1535 1528 1528 1530 1526 1517 1521 1509 1504 1499 1499 1506 1512 1517 1522 1524 1525 1525 1523 1520 1517 1514 1514 1512 1507 1505 1501 1496 1492 1490 1488 1484 1480 1478 1474 1470 1467 1463 1460
1537 1544 1539 1536 1540 1541 1535 1538 1540 1539 1524 1514 1510 1499 1503 1508 1512 1516 1520 1522 1524 1526 1525 1522 1520 1518 1515 1512 1509 1504 1500 1497 1496 1493 1490 1486 1481 1477 1473 1469 1464 1462 1459 1456
1542 1543 1540 1538 1542 1546 1543 1541 1540 1534 1533 1531 1516 1527 1505 1512 1516 1518 1521 1524 1526 1526 1525 1522 1518 1516 1512 1510 1507 1502 1496 1495 1494 1491 1488 1484 1479 1473 1471 1466 1462 1457 1453 1451
1550 1547 1546 1545 1550 1548 1545 1541 1535 1530 1529 1528 1513 1526 1515 1510 1519 1525 1523 1523 1524 1524 1524 1522 1518 1515 1510 1508 1504 1499 1495 1493 1491 1487 1484 1480 1475 1471 1467 1463 1457 1453 1448 1445
1549 1550 1552 1554 1549 1544 1543 1535 1519 1513 1522 1533 1526 1535 1520 1520 1527 1527 1527 1526 1525 1524 1522 1519 1515 1512 1508 1506 1501 1496 1492 1488 1487 1484 1480 1476 1471 1468 1463 1458 1452 1447 1443 1439
1544 1549 1554 1555 1550 1543 1547 1546 1545 1534 1532 1528 1513 1530 1531 1527 1528 1528 1526 1522 1521 1520 1518 1515 1514 1511 1507 1503 1499 1494 1489 1486 1483 1480 1476 1473 1468 1464 1459 1453 1449 1444 1438 1434
1561 1556 1555 1556 1559 1559 1554 1554 1564 1566 1555 1546 1531 1534 1534 1528 1530 1529 1528 1525 1523 1520 1516 1513 1512 1510 1506 1502 1497 1493 1489 1484 1481 1477 1472 1468 1463 1458 1453 1449 1445 1440 1436 1430
1571 1559 1554 1556 1557 1560 1558 1567 1567 1568 1555 1557 1536 1520 1520 1521 1524 1527 1528 1525 1522 1517 1513 1512 1510 1508 1504 1499 1495 1491 1486 1482 1477 1473 1467 1462 1457 1453 1448 1443 1439 1435 1430 1425
1575 1578 1557 1557 1556 1559 1563 1566 1575 1568 1587 1571 1543 1539 1537 1537 1533 1530 1525 1524 1520 1515 1513 1512 1509 1505 1501 1497 1492 1488 1483 1478 1473 1468 1463 1457 1452 1448 1443 1438 1433 1429 1424 1418
1579 1579 1562 1557 1559 1565 1568 1570 1569 1571 1570 1574 1566 1550 1543 1541 1537 1532 1528 1529 1522 1518 1514 1511 1507 1503 1499 1494 1489 1484 1480 1474 1469 1464 1458 1453 1447 1442 1438 1433 1428 1422 1416 1411
1586 1586 1582 1568 1567 1568 1571 1578 1580 1595 1589 1585 1582 1560 1547 1544 1542 1535 1530 1528 1524 1519 1515 1510 1505 1500 1495 1491 1486 1481 1476 1471 1466 1460 1454 1448 1442 1437 1432 1427 1421 1414 1408 1404
1594 1583 1590 1572 1574 1571 1576 1578 1581 1585 1585 1582 1587 1565 1550 1551 1551 1544 1540 1533 1521 1517 1514 1508 1502 1497 1492 1487 1482 1477 1472 1467 1462 1455 1448 1442 1436 1431 1425 1419 1413 1407 1401 1396
1597 1592 1593 1599 1591 1588 1584 1578 1577 1576 1581 1571 1571 1558 1554 1558 1553 1544 1542 1531 1522 1517 1512 1507 1501 1495 1490 1484 1478 1473 1468 1463 1457 1450 1443 1436 1430 1425 1419 1413 1407 1400 1394 1388
1600 1602 1593 1591 1588 1583 1576 1577 1574 1579 1573 1576 1568 1565 1561 1561 1557 1544 1538 1531 1520 1515 1511 1505 1499 1493 1486 1480 1474 1469 1463 1456 1451 1444 1437 1430 1424 1419 1414 1407 1400 1393 1386 1383
1600 1601 1595 1593 1583 1582 1581 1579 1580 1579 1575 1575 1570 1566 1564 1558 1550 1542 1535 1526 1520 1515 1510 1503 1496 1489 1482 1476 1469 1463 1456 1450 1445 1438 1431 1423 1419 1413 1407 1400 1393 1386 1379 1372
1603 1602 1601 1594 1592 1581 1581 1587 1584 1582 1579 1574 1574 1572 1564 1553 1545 1540 1532 1528 1522 1515 1507 1499 1492 1485 1477 1471 1465 1457 1450 1444 1438 1431 1424 1417 1412 1407 1398 1392 1386 1379 1371 1364
1603 1604 1605 1605 1596 1599 1587 1585 1584 1583 1579 1577 1573 1570 1562 1553 1544 1538 1531 1527 1520 1512 1503 1495 1487 1479 1473 1465 1459 1452 1444 1438 1431 1424 1417 1412 1406 1398 1391 1386 1378 1371 1366 1357
1606 1606 1618 1624 1612 1599 1584 1585 1588 1586 1576 1576 1571 1563 1557 1548 1539 1532 1530 1525 1519 1509 1500 1492 1484 1475 1467 1460 1452 1444 1436 1431 1423 1416 1411 1405 1400 1392 1386 1382 1373 1370 1365 1354
1606 1608 1621 1623 1625 1609 1590 1590 1586 1582 1577 1570 1571 1563 1555 1548 1537 1526 1523 1518 1510 1504 1495 1486 1478 1470 1462 1454 1446 1437 1429 1424 1416 1410 1406 1399 1394 1388 1383 1379 1371 1370 1363 1358
1612 1615 1622 1615 1617 1598 1592 1589 1585 1586 1586 1575 1569 1562 1555 1550 1545 1530 1522 1513 1506 1499 1490 1481 1474 1465 1456 1448 1440 1429 1421 1416 1410 1405 1400 1395 1389 1384 1382 1376 1372 1369 1364 1362
1612 1619 1617 1614 1614 1599 1591 1590 1592 1589 1579 1575 1566 1559 1552 1545 1535 1527 1519 1510 1501 1493 1484 1476 1467 1458 1450 1443 1433 1421 1414 1408 1403 1399 1394 1391 1388 1382 1379 1376 1373 1370 1369 1367
1609 1608 1614 1612 1604 1594 1591 1590 1587 1583 1577 1569 1562 1554 1548 1540 1532 1524 1515 1507 1499 1490 1481 1473 1463 1450 1443 1434 1426 1414 1407 1401 1397 1394 1391 1389 1386 1382 1379 1376 1376 1375 1375 1374
1597 1600 1603 1603 1596 1593 1586 1584 1582 1576 1572 1565 1559 1552 1544 1537 1529 1520 1513 1505 1495 1488 1479 1469 1457 1445 1433 1425 1416 1409 1402 1397 1394 1391 1390 1389 1385 1384 1381 1379 1380 1380 1381 1381
1602 1601 1601 1598 1594 1590 1587 1584 1577 1570 1567 1561 1553 1548 1541 1534 1526 1520 1512 1503 1494 1486 1475 1465 1453 1441 1428 1419 1410 1405 1399 1395 1392 1391 1389 1389 1386 1386 1385 1384 1386 1387 1388 1389
1600 1601 1603 1599 1597 1594 1587 1582 1574 1568 1563 1557 1550 1543 1537 1533 1526 1519 1510 1502 1494 1483 1472 1460 1448 1437 1423 1416 1408 1403 1400 1396 1394 1392 1392 1392 1390 1390 1390 1390 1393 1395 1397 1398